Content
SEND FEEDBACK

Daily
Averages
Monthly
Summary
United States of America

FORT DIX, NEW JERSEY


Home > North America > United States > New Jersey
Elevation: 148 feet     Latitude: 40 01N     Longitude: 074 36W

WEATHER
 
SELECT A DAY
Number of Records: 38,212;   Date Range: 9/1/12 - 10/21/14
 
SHARE

PRINT THIS DATA

[ ← Previous Day ]
WEATHER ALMANAC - SEPTEMBER 2, 2014
[ Next Day → ]
[ °C ]   °F
Weather ElementAverageHighLow
Temperature77.2 °F91.2 °F (2:58 pm)71.6 °F (4:53 am)
Dewpoint71.7 °F73.9 °F (1:58 am)68 °F (8:59 pm)
Humidity84.9 %100 % (1:58 am)54 % (2:58 pm)
Barometer29.89 in29.94 in (7:58 am)29.83 in (5:58 pm)
Wind Speed7.4 mph20.7 mph (8:49 pm)
Wind Gust35.7 mph (8:49 pm)
Weather ElementAverage
Visibility9 mi
Wind DirectionSSW (206.7 °)

Weather ElementTotal
Precipitation0.06 in
Cooling Degree Days16.4 (Base 65)
Growing Degree Days31.4 (Base 50)
Averaged from 46 records on September 2, 2014
WEATHER CONDITIONS BREAKOUT
WIND DIRECTION BREAKOUT
WEATHER BY HOUR - SEPTEMBER 2, 2014
[ °C ]   °F
Local TimeTemperatureDewpointHumidityBarometerVisibilityWind DirectionWind SpeedGust SpeedPrecipitationEventsConditions
1:58 AM73.9 °F73.9 °F100 %29.93 in10.0 miWSW (250°)3.5 mphClear
2:58 AM73.4 °F73.4 °F100 %29.93 in10.0 miSE (140°)1.2 mphClear
3:13 AM73.4 °F73.4 °F100 %29.91 in8.0 miSSW (200°)3.5 mphClear
3:18 AM73.4 °F73.4 °F100 %29.92 in6.0 miCalmClear
3:23 AM73.4 °F73.4 °F100 %29.92 in7.0 miCalmClear
3:28 AM73.4 °F73.4 °F100 %29.92 in9.0 miCalmClear
3:38 AM73.4 °F73.4 °F100 %29.91 in9.0 miCalmClear
3:58 AM72.3 °F72.3 °F100 %29.93 in9.0 miSW (220°)5.8 mphClear
4:08 AM73.4 °F73.4 °F100 %29.91 in10.0 miSW (230°)4.6 mphClear
4:38 AM73.4 °F73.4 °F100 %29.90 in8.0 miSSE (160°)2.3 mphClear
4:43 AM73.4 °F73.4 °F100 %29.90 in6.0 miSW (220°)3.5 mphClear
4:53 AM71.6 °F71.6 °F100 %29.89 in9.0 miSouth (190°)2.3 mphClear
4:58 AM72.3 °F72.3 °F100 %29.90 in10.0 miSouth (170°)2.3 mphClear
5:18 AM71.6 °F71.6 °F100 %29.89 in8.0 miSouth (180°)2.3 mphClear
5:23 AM71.6 °F71.6 °F100 %29.89 in2.5 miSouth (170°)2.3 mphClear
5:28 AM71.6 °F71.6 °F100 %29.89 in2.0 miSouth (180°)4.6 mphClear
5:33 AM71.6 °F71.6 °F100 %29.89 in6.0 miSouth (190°)3.5 mphClear
5:38 AM71.6 °F71.6 °F100 %29.89 in9.0 miSouth (190°)2.3 mphClear
5:58 AM71.6 °F71.6 °F100 %29.90 in10.0 miSouth (190°)3.5 mphPartly Cloudy
6:58 AM72.1 °F72.1 °F100 %29.93 in10.0 miWSW (240°)3.5 mphClear
7:58 AM75.6 °F73.2 °F92 %29.94 in10.0 miWest (260°)5.8 mphClear
8:58 AM79.2 °F73.0 °F81 %29.94 in10.0 miWest (260°)6.9 mphClear
9:58 AM83.1 °F72.3 °F70 %29.94 in10.0 miWest (280°)8.1 mphClear
10:58 AM86.5 °F72.3 °F62 %29.94 in10.0 miWest (280°)8.1 mphClear
11:58 AM88.3 °F73.0 °F60 %29.93 in10.0 miWest (280°)9.2 mphClear
12:58 PM89.1 °F72.9 °F59 %29.91 in10.0 miWest (280°)10.4 mphClear
1:58 PM88.7 °F72.5 °F59 %29.88 in10.0 miWest (270°)6.9 mphMostly Cloudy
2:19 PM89.6 °F71.6 °F55 %29.87 in10.0 miSW (220°)12.7 mphMostly Cloudy
2:58 PM91.2 °F72.5 °F54 %29.86 in10.0 miWSW (240°)12.7 mphScattered Clouds
3:58 PM90.9 °F72.5 °F55 %29.85 in10.0 miWSW (250°)11.5 mph20.7 mphPartly Cloudy
4:58 PM90.0 °F73.0 °F57 %29.84 in10.0 miWSW (240°)12.7 mphMostly Cloudy
5:58 PM88.0 °F72.9 °F61 %29.83 in10.0 miSW (220°)11.5 mphClear
6:58 PM84.2 °F72.3 °F67 %29.83 in10.0 miSW (220°)9.2 mphClear
7:58 PM80.2 °F72.3 °F77 %29.84 in9.0 miSW (230°)8.1 mphClear
8:44 PM80.6 °F71.6 °F74 %29.85 in10.0 miSW (230°)13.8 mph24.2 mphRainLight Rain
8:49 PM78.8 °F69.8 °F74 %29.85 in7.0 miWSW (250°)20.7 mph35.7 mphRainLight Rain
8:58 PM76.5 °F68.4 °F76 %29.86 in10.0 miWSW (240°)18.4 mph27.6 mph0.03 inRainLight Rain
8:59 PM75.2 °F68.0 °F78 %29.85 in10.0 miWSW (240°)17.3 mph27.6 mphRain-ThunderstormLight Thunderstorms and Rain
9:17 PM73.4 °F68.0 °F83 %29.86 in10.0 miWSW (240°)8.1 mphRain-ThunderstormLight Thunderstorms and Rain
9:29 PM73.4 °F68.0 °F83 %29.85 in10.0 miSW (230°)8.1 mphRainLight Rain
9:45 PM73.4 °F68.0 °F83 %29.86 in10.0 miSSW (210°)5.8 mphClear
9:58 PM72.3 °F69.4 °F91 %29.87 in10.0 miSSW (210°)5.8 mph0.01 inClear
10:58 PM73.9 °F68.5 °F83 %29.86 in10.0 miWSW (250°)18.4 mph24.2 mphMostly Cloudy
10:59 PM73.4 °F68.0 °F83 %29.85 in10.0 miWSW (250°)17.3 mph24.2 mphRainLight Rain
11:22 PM71.6 °F69.8 °F94 %29.84 in10.0 miWSW (250°)9.2 mphScattered Clouds
11:58 PM71.8 °F70.2 °F95 %29.87 in10.0 miWest (260°)10.4 mph0.02 inClear
Hourly data recorded from KWRI, located miles away from Fort Dix, New Jersey







STORIES FROM OUR PARTNERS